Location: Caltech
(34.1382°N, 118.1253°W)
Time: 12:52:34
(UTC-08:00)

Cosmos 1833 Rocket - Visible Passes

Search period start: 01 March 2015 00:00
Search period end: 11 March 2015 01:00
Orbit: 833 x 839 km, 71.0° (Epoch: 01 March)

Date Brightness Start Highest point End Pass type
(mag) Time Alt. Az. Time Alt. Az. Time Alt. Az.
06 Mar 5.2 05:44:14 10° N 05:48:14 20° ENE 05:52:24 10° ESE visible
07 Mar 5.3 05:27:47 10° NNE 05:31:33 19° NE 05:35:30 10° E visible
08 Mar 5.4 06:11:21 10° NNE 06:14:51 17° NE 06:18:34 10° E visible
08 Mar 4.3 20:56:08 10° S 20:57:57 21° S 20:57:57 21° S visible
09 Mar 5.4 05:54:57 10° NNE 05:58:09 16° NE 06:01:35 10° E visible
09 Mar 2.6 20:39:34 10° S 20:45:02 57° ESE 20:45:20 56° E visible
09 Mar 5.2 22:25:37 10° W 22:35:49 - N 22:27:23 15° W visible
10 Mar 5.5 05:38:35 10° NNE 05:41:26 14° NE 05:44:34 10° E visible
10 Mar 2.7 20:23:00 10° S 20:28:25 52° ESE 20:33:53 10° NNE visible
10 Mar 5.0 22:08:41 10° WSW 22:12:45 19° NW 22:16:37 10° NNW visible
